Back to race calendar

Stranraer 10k Road Race, Scotland

1st November 2014

(This is a sortable table - click column heading)
Results courtesy of Steve Ashcroft
Filter (choose one only!)
Surname:
Cat: Club:
PosNumForenameSurnameCatClubTime
145RobertGilroyMRon Hill Cambuslang Harriers00:31:47
2143KennethNeillMAyr Seaforth00:35:34
376JenniferEmsleyFArran Runners00:37:08
446RickWilliamsMV45Galloway Harriers00:39:02
579StuartTempletonMGalloway Harriers00:40:17
698BenWhiteM 00:40:31
7134GuyWrightMV45Dalbeattie RC00:40:36
8157CraigMurphyMV45Girvan AAC00:40:48
983CraigBrownMAyr Seaforth00:40:51
10142GordonHamiltonMV40 00:41:01
118JamesKellockMV45Dumfries RC00:41:03
1284GrahamMcLellanMHardrock Hoodlums00:41:06
1388StevenWilliamsonM 00:41:12
1457GarryBurnsMV40Hardrock Hoodlums00:41:18
1580JemmaMcNeillFV35Galloway Harriers00:41:20
1642IainMcLeanMV45 00:41:30
17106JonathnCornelieM 00:41:31
1823MatthewRobinsonMGalloway Harriers00:41:36
1968NormanNeilsonMV55Dalbeattie RC00:41:37
20172JustinCampbell-BlackM 00:42:32
2196AndrewRaeMDalbeattie RC00:42:40
22168MarkWallaceM 00:42:48
23152SandyCurrieF 00:42:55
2482AidenDewarM 00:43:02
25110StephenWattersonMV45Ballybrain Harriers00:43:02
26100CraigMalcolmsonMV50Dalbeattie RC00:43:24
27126DavidMabonMV60Kirkcudbright RC00:43:27
2816GarryRathboneMV55 00:43:39
29131DavidTaylorMV50 00:43:43
3061JohnRennieMV50 00:43:57
31164RobertGarrettM 00:44:08
3277KyleMcClungM 00:44:24
33101ColinCowanMDalbeattie RC00:44:52
34146JohnGoodenoughMGirvan AAC00:44:57
35155GarryMarshallM 00:45:01
3669PeterHorsellMV60Galloway Harriers00:45:02
37139BenHolmesM 00:45:13
3867IanHannahMV50Galloway Harriers00:45:14
3972FrancesButlerFV40Galloway Harriers00:45:14
4012GeorgeRooneyMV40 00:45:37
41169KennyWallaceM 00:46:00
42166StuartGiffinM 00:46:08
43159DavidCrawfordMGirvan AAC00:46:08
4460JohnWilsonM 00:46:11
45103CraigCramondM 00:46:17
46112CraigCavinM 00:46:28
4733JamesBoukeM 00:46:40
48144WilliamGarrettM 00:46:40
4926RhonaGallowayFStrathclyde Uni Harriers00:46:42
5022HarryMcFadyeanMV50 00:46:43
51128DougieMilliganMV60Solway Running00:46:57
5286ScottMcCutcheonMV40 00:47:10
5392DavidMcWhirterMV45 00:47:10
54108PaulRichieM 00:47:21
5566DavidBeattieMV45Galloway Harriers00:47:27
56129BobGreenMV55Solway Running00:47:31
5755DamianPaiaseznyM 00:47:34
5853PaulLindsayMV50 00:47:44
59154JudeBairdFV40 00:47:51
60141IainMcDowallMV45 00:48:17
6189RachelChristieFV40 00:48:22
62138ElaineRennieFV45 00:48:30
6362StuartMurrayMV40 00:48:38
64165StuartFittonM 00:48:45
6544AnneNobleFV50Troon Tortoises00:48:53
66127BruceSwanstonMV45FNRC00:48:56
6728CraigWhitesideMV60Motherwell AC00:49:09
68153NiallBalmerMV55 00:49:29
695NoelStaffordM 00:49:55
7070MartinaMooreFV45Galloway Harriers00:49:58
7124SarahWalkerF 00:50:11
72107TonyCookeMV50 00:50:22
73137KayRymanF 00:50:29
7456ColinStewartMV40Shettleston Harriers00:50:30
7548DouglasKerrMV40Dumfries Harriers00:50:38
76113JanetCampbellFV55Kirkcudbright RC00:50:57
77163MarkDunseithMElvet Striders00:51:07
78104MaggieCramondFV55 00:51:18
79130JohnFinlayM 00:51:28
802RobertAthertonMV55 00:51:37
81132CharlotteWrightF 00:51:44
824AlanDrennanM 00:51:53
8359NormaGillanFV45Galloway Harriers00:51:54
84156YvonneBeswickFV35 00:52:08
8536UnaCourtneyFV45Kirkcudbright RC00:52:17
86133PeterMcMillanM 00:52:27
87114KerryScottFKirkcudbright RC00:52:33
889KirsteenKellockFV35Dumfries RC00:52:57
89173DavidPackerM 00:53:01
90158DavidStewartM 00:53:06
9139BobbyCrombieMV50 00:53:06
92174GrahamShawM 00:53:10
93147SarahConnorF 00:53:17
94150YvonneLeslieFV50 00:53:29
9587SaraFingletonF 00:53:35
9611LaurenCarsonF 00:53:36
973RobsonAthertonM 00:53:52
98102NorrieBradshawMV60 00:54:18
99140RossAlexanderMV45 00:54:25
100136HollieMitchellFKirkcudbright RC00:54:27
101117ShannaStittFKirkcudbright RC00:54:27
10278JaniceMcKellarFV55Ayr Seaforth00:54:33
10373GarryHawthorneM 00:55:01
10443RuthGriffinFV45 00:55:27
10554DonaldWallaceMV60 00:55:33
10695EuanSprottMV40 00:55:35
10765EmerBeattieFV45Galloway Harriers00:55:36
108148LynneSteelFV35 00:55:38
109149ClaireRankinFV35 00:55:38
110171JackMcClymontM 00:56:06
11174AllanStrangMV50Galloway Harriers00:56:21
1121GailMuirFV45Galloway Harriers00:56:53
11363GillianMoffatF 00:57:01
11429SusanPriestleyFV55 00:57:06
11575JanEmsleyFV55Arran Runners00:57:06
116161GavinMilvenMV40 00:57:07
11734NoelKelleyM 00:57:15
11891StevenDampneyMV50 00:57:22
11918MarkKinnonMV50 00:57:22
12099AndySharplesM 00:57:27
121135MartinGordanM 00:57:37
122115PheonaKerrFV45Kirkcudbright RC00:57:41
123111StephenAndersonMV40 00:57:47
12449GerrardMacNamaraMV70 00:57:50
12581GillianLloydFV60 00:58:15
12694JudithCampbellFV35 00:58:33
12793ClaireDavidsonFV40 00:58:33
12825AilsaTaggartFV50Galloway Harriers00:59:01
12927JeanetteWhitesideFV50 00:59:04
130167GabrielleReillyF 00:59:09
131151BethanyLeslieF 00:59:29
132109JackMaxwellMV50Girvan AAC01:00:01
133170GabrielleVine-BodleF 01:00:20
134160SharonMilvenFV45 01:00:26
13590BillyCrombieMV60 01:00:35
13614AshleyCarsonF 01:00:38
13737LauraDempsieFV40 01:00:55
13838ArleneWallaceFV40 01:00:55
13950AndreaMathiesonF 01:00:57
14051GraemeBurrellM 01:00:57
141119TracyBatyFV40Kirkcudbright RC01:01:05
142120EbbySigmundFV50Kirkcudbright RC01:01:12
14310KarenBrownlieFV35 01:01:34
14415CraigMortonM 01:01:50
14558PeterBlakemanMV50 01:03:02
14685WarranMcWhirterMV45 01:03:21
147123JulieBatyFKirkcudbright RC01:03:46
14871LauraStirlingF 01:04:12
149145HubertStachnioM 01:04:13
150116SamanthaGoodareFV40Kirkcudbright RC01:04:59
151162AnitaDunseithFElvet Striders01:05:32
152125LouiseDurhamFV40Kirkcudbright RC01:05:51
153122JennyFultonFKirkcudbright RC01:07:01
154105BobbieMcKieMV60 01:07:04
155121JacquelineMiddlemasFV35Kirkcudbright RC01:07:45
156118KimMcLachlanFV40Kirkcudbright RC01:07:45
157124ShirleySmithFV50Kirkcudbright RC01:08:07
15819DavidRaineyMV55 01:08:30
15930ChristineDinsmoreFV55 01:10:15
16040MoiraMcDowallFV45 01:12:39
16141CarolynDaviesFV45 01:13:17

Back to race calendar - Top of page